Location: Unspecified
(0.0000°N, 0.0000°E)
Time: 17:28:49
(UTC+00:00)

Hubble Space Telescope - Pass Details

Date: 07 November 2025
Orbit: 482 x 485 km, 28.5° (Epoch: 06 November)

Event Time Altitude Azimuth Distance (km) Brightness Sun altitude
Rises 19:22:31 0° 289° (WNW) 2,521 5.0 -23.6°
Reaches altitude 10° 19:24:48 10° 282° (WNW) 1,644 4.0 -24.2°
Enters shadow 19:28:21 41° 212° (SSW) 699 1.6 -25.0°
